NOAA 16 DEB, 41198

Orbit data source: Space-Track

NOAA 16 DEB, 41198 is space debris in SSO originally from a launch on Thu, 21 Sep 2000 UTC launched from the Air Force Western Test Range (AFWTR). Debris objects in space refer to the collection of defunct objects orbiting the Earth. Examples of debris include non-operational satellites, rocket bodies, and fragments generated from explosions, collisions, or faulty payload assembly.

Loading next visibility...
Identifier
41198, 2000-055DB
Orbit
SSO
Country
Flag of USUS
Related business
Manufacturer
Unknown
Mission
Spacecraft
Bus & Motor
Unknown
Mass
Unknown
Launch date (UTC)
2000-09-21 (26 years ago)
Launch vehicle
Unknown
Launch site
Air Force Western Test Range (AFWTR)
Object type
Payload
Rocket body
Debris
Shape & HBR
Unknown shape, 0.1 m
Radar Cross Section
Medium (>0.1 m² and <1 m²)

Expand to show TLE details & history
Last TLE update: 10 hours ago

TLE from 10 hours ago
0 NOAA 16 DEB
1 41198U 00055DB  26255.80252405  .00008309  00000-0  22566-2 0  9992
2 41198  98.9096  16.1009 0020012 243.0935 116.8211 14.47700749554461
Epoch: 2026-09-12T19:15Z
TLE epoch observation values (Epoch: 2026-09-12T19:15:38.077Z)
Latitude
-0.00008°
Longitude
95.38596°
Altitude
742.559 km
Speed
7.48 km/s
True Right ascension
01h 04m 24s
True Declination
0° 00' 00"
Sunlit
Object was in full shadow at epoch
Visualization orbit readout
Latitude
Unknown
Longitude
Unknown
Altitude
Unknown
Speed
Unknown
Apparent Right ascension
Unknown
Apparent Declination
Unknown
Sunlit
N/A
Visualization observer readout
Local Sidereal Time
22:10:51
Azimuth
Unknown
Elevation
Unknown
Doppler factor
Unknown
Orbital elements
Apogee altitude
744.525 km
Perigee altitude
716.074 km
Semi-major axis
7,108.437 km
Eccentricity
0.002
Inclination
98.9096°
RAAN
16.1009°
Arg. of periapsis
243.0935°
True anomaly
117.02552°
Mean anomaly
116.8211°
Eccentric anomaly
116.92333°
Mean motion
3.62145 °/min
Orbital period
99.41 mins
BSTAR
0.0022566
Loading maneuver chart data...
Computing Atmospheric mass density...
Loading historical data...
Loading historical data...
Loading historical data...
Loading historical data...
Loading historical data...
Loading historical data...
Loading historical data...

Documentation

Showing up to 5 results
|